Weather History for Phoenix-Mesa Gateway Airport, AZ

Change the Weather History Date:

Sunday, February 17, 2013

  Actual Average Record
Temperature  
Mean Temperature 57 °F -  
Max Temperature 73 °F 66 °F 84 °F (2007)
Min Temperature 41 °F 44 °F 35 °F (2001)
Degree Days  
Heating Degree Days 8    
Growing Degree Days 7 (Base 50)    
Moisture  
Dew Point 18 °F    
Average Humidity 27    
Maximum Humidity 42    
Minimum Humidity 9    
Precipitation  
Precipitation 0.00 in - - ()
Sea Level Pressure  
Sea Level Pressure 29.92 in    
Wind  
Wind Speed 6 mph (SSE)    
Max Wind Speed 12 mph    
Max Gust Speed -    
Visibility 12 miles    
Events      
Averages and records for this station are not official NWS values.
T = Trace of Precipitation, MM = Missing Value Source: NWS Daily Summary

Daily Weather History Graph

Daily Weather History Graph

Search for Another Location

Airport:

Trip Planner

Search our weather history database for the weather conditions in past years. The results will help you decide how hot, cold, wet, or windy it might be!

Date:

Astronomy

Feb. 17, 2013 Rise Set
Actual Time 7:08 AM MST 6:13 PM MST
Civil Twilight 6:42 AM MST 6:38 PM MST
Nautical Twilight 6:13 AM MST 7:07 PM MST
Astronomical Twilight 5:44 AM MST 7:36 PM MST
Moon 11:27 AM MST (2/17) 12:49 AM MST (2/17)
Length of Visible Light 11h 56m
Length of Day
11h 05m
Waxing Crescent, 49% of the Moon is Illuminated
Feb 17
Waxing Crescent
Feb 17
First Quarter
Feb 25
Full
Mar 4
Last Quarter
Mar 11
New

Hourly Weather History & Observations

Time (MST) Temp. Windchill Dew Point Humidity Pressure Visibility Wind Dir Wind Speed Gust Speed Precip Events Conditions
12:15 AM 51.8 °F - 17.6 °F 26% 29.99 in 10.0 mi ESE 6.9 mph - N/A   Clear
12:35 AM 51.8 °F - 17.6 °F 26% 29.98 in 10.0 mi ESE 4.6 mph - N/A   Clear
12:55 AM 46.4 °F 43.5 °F 19.4 °F 34% 29.99 in 10.0 mi SE 5.8 mph - N/A   Clear
1:15 AM 46.4 °F 42.9 °F 19.4 °F 34% 29.98 in 10.0 mi ESE 6.9 mph - N/A   Clear
1:35 AM 46.4 °F 42.9 °F 19.4 °F 34% 29.98 in 10.0 mi ESE 6.9 mph - N/A   Clear
1:55 AM 44.6 °F 40.7 °F 19.4 °F 37% 29.97 in 10.0 mi East 6.9 mph - N/A   Clear
2:15 AM 44.6 °F 40.7 °F 19.4 °F 37% 29.97 in 10.0 mi East 6.9 mph - N/A   Clear
2:35 AM 46.4 °F 42.4 °F 17.6 °F 32% 29.96 in 10.0 mi East 8.1 mph - N/A   Clear
2:55 AM 46.4 °F 42.9 °F 19.4 °F 34% 29.95 in 10.0 mi ESE 6.9 mph - N/A   Clear
3:15 AM 44.6 °F 40.2 °F 19.4 °F 37% 29.95 in 10.0 mi ESE 8.1 mph - N/A   Clear
3:35 AM 44.6 °F 40.7 °F 19.4 °F 37% 29.94 in 10.0 mi ESE 6.9 mph - N/A   Clear
3:55 AM 44.6 °F 42.2 °F 19.4 °F 37% 29.93 in 10.0 mi East 4.6 mph - N/A   Clear
4:15 AM 42.8 °F 38.6 °F 19.4 °F 39% 29.93 in 10.0 mi SE 6.9 mph - N/A   Clear
4:35 AM 42.8 °F 39.3 °F 21.2 °F 42% 29.93 in 10.0 mi ESE 5.8 mph - N/A   Clear
4:55 AM 42.8 °F 39.3 °F 21.2 °F 42% 29.93 in 10.0 mi East 5.8 mph - N/A   Clear
5:15 AM 42.8 °F 38.6 °F 21.2 °F 42% 29.93 in 10.0 mi East 6.9 mph - N/A   Clear
5:47 AM 42.8 °F 39.3 °F 19.4 °F 39% 29.92 in 20.0 mi East 5.8 mph - N/A   Partly Cloudy
6:47 AM 41.0 °F 37.1 °F 19.4 °F 42% 29.92 in 20.0 mi ESE 5.8 mph - N/A   Partly Cloudy
7:47 AM 42.8 °F 39.3 °F 21.2 °F 42% 29.93 in 30.0 mi East 5.8 mph - N/A   Partly Cloudy
8:47 AM 53.6 °F - 23.0 °F 30% 29.94 in 30.0 mi ESE 5.8 mph - N/A   Partly Cloudy
9:47 AM 60.8 °F - 21.2 °F 22% 29.94 in 30.0 mi ESE 5.8 mph - N/A   Partly Cloudy
10:47 AM 64.4 °F - 17.6 °F 16% 29.94 in 30.0 mi SSE 8.1 mph - N/A   Partly Cloudy
11:47 AM 66.2 °F - 15.8 °F 14% 29.93 in 30.0 mi South 6.9 mph - N/A   Partly Cloudy
12:47 PM 69.8 °F - 17.6 °F 14% 29.91 in 30.0 mi SW 5.8 mph - N/A   Clear
1:47 PM 73.4 °F - 15.8 °F 11% 29.87 in 30.0 mi SW 11.5 mph - N/A   Clear
2:47 PM 73.4 °F - 15.8 °F 11% 29.87 in 30.0 mi West 8.1 mph - N/A   Clear
3:50 PM 73.4 °F - 15.8 °F 11% 29.85 in 30.0 mi West 6.9 mph - N/A   Clear
4:47 PM 73.4 °F - 10.4 °F 9% 29.85 in 30.0 mi West 8.1 mph - N/A   Clear
5:47 PM 71.6 °F - 10.4 °F 9% 29.86 in 30.0 mi WSW 10.4 mph - N/A   Clear
6:47 PM 64.4 °F - 14.0 °F 14% 29.87 in 20.0 mi West 4.6 mph - N/A   Clear
7:47 PM 60.8 °F - 17.6 °F 19% 29.88 in 20.0 mi Calm Calm - N/A   Clear
7:55 PM 62.6 °F - 15.8 °F 16% 29.89 in 10.0 mi Calm Calm - N/A   Clear
8:15 PM 60.8 °F - 17.6 °F 19% 29.89 in 10.0 mi SSW 3.5 mph - N/A   Clear
8:35 PM 57.2 °F - 19.4 °F 23% 29.90 in 10.0 mi SSW 3.5 mph - N/A   Clear
8:47 PM 57.2 °F - 17.6 °F 21% 29.90 in 20.0 mi South 3.5 mph - N/A   Clear
8:55 PM 55.4 °F - 21.2 °F 26% 29.90 in 10.0 mi Calm Calm - N/A   Clear
9:15 PM 55.4 °F - 19.4 °F 25% 29.90 in 10.0 mi SSW 4.6 mph - N/A   Clear
9:35 PM 57.2 °F - 19.4 °F 23% 29.91 in 10.0 mi Calm Calm - N/A   Clear
9:55 PM 57.2 °F - 17.6 °F 21% 29.91 in 10.0 mi SSW 4.6 mph - N/A   Clear
10:15 PM 57.2 °F - 17.6 °F 21% 29.92 in 10.0 mi SSW 6.9 mph - N/A   Clear
10:35 PM 55.4 °F - 17.6 °F 23% 29.92 in 10.0 mi SW 6.9 mph - N/A   Clear
10:55 PM 53.6 °F - 19.4 °F 26% 29.93 in 10.0 mi SW 4.6 mph - N/A   Clear
11:15 PM 55.4 °F - 17.6 °F 23% 29.93 in 10.0 mi WSW 3.5 mph - N/A   Clear
11:35 PM 53.6 °F - 17.6 °F 24% 29.93 in 10.0 mi Calm Calm - N/A   Clear
11:55 PM 50.0 °F - 19.4 °F 30% 29.94 in 10.0 mi East 8.1 mph - N/A   Clear